Satellite-Ground Cal/Val Region Overpasses Predictions

Prediction of Satellite NPP Overpassing Cal/Val Region: PacNW

Region Location: (Latitude: 10.00, Longitude: 139.50) to (Latitude: 22.70, Longitude: 165.60).

Table of predicted overpasses for the next 14.0 days since TLE Epoch: 6/28/2013
Interval Starting Time Starting Location Ending Time Ending Location
1 06/29/2013 02:57:57 ( 10.04, 155.10) 06/29/2013 03:01:32 ( 22.66, 152.10)
2 06/29/2013 15:29:50 ( 22.66, 152.35) 06/29/2013 15:33:25 ( 10.04, 149.35)
3 06/30/2013 02:38:55 ( 10.03, 159.87) 06/30/2013 02:42:30 ( 22.65, 156.86)
4 06/30/2013 15:10:47 ( 22.67, 157.12) 06/30/2013 15:14:22 ( 10.05, 154.11)
5 07/01/2013 02:19:52 ( 10.01, 164.63) 07/01/2013 02:23:28 ( 22.69, 161.61)
6 07/01/2013 14:51:45 ( 22.69, 161.89) 07/01/2013 14:55:21 ( 10.01, 158.86)
7 07/02/2013 03:42:20 ( 10.00, 144.02) 07/02/2013 03:45:56 ( 22.68, 141.00)
8 07/02/2013 14:33:55 ( 18.42, 165.60) 07/02/2013 14:36:18 ( 10.03, 163.63)
9 07/02/2013 16:14:12 ( 22.70, 141.28) 07/02/2013 16:16:16 ( 15.42, 139.51)
10 07/03/2013 03:23:18 ( 10.05, 148.78) 07/03/2013 03:26:53 ( 22.67, 145.77)
11 07/03/2013 15:55:11 ( 22.65, 146.03) 07/03/2013 15:58:46 ( 10.03, 143.02)
12 07/04/2013 03:04:16 ( 10.03, 153.54) 07/04/2013 03:07:51 ( 22.65, 150.53)
13 07/04/2013 15:36:08 ( 22.67, 150.79) 07/04/2013 15:39:43 ( 10.05, 147.78)
14 07/05/2013 02:45:13 ( 10.02, 158.31) 07/05/2013 02:48:49 ( 22.70, 155.28)
15 07/05/2013 15:17:06 ( 22.68, 155.56) 07/05/2013 15:20:42 ( 10.01, 152.54)
16 07/06/2013 02:26:11 ( 10.00, 163.07) 07/06/2013 02:29:47 ( 22.69, 160.05)
17 07/06/2013 14:58:03 ( 22.70, 160.32) 07/06/2013 15:01:39 ( 10.02, 157.30)
18 07/07/2013 02:09:50 ( 19.50, 165.60) 07/07/2013 02:10:44 ( 22.67, 164.81)
19 07/07/2013 03:48:39 ( 10.06, 142.45) 07/07/2013 03:52:09 ( 22.39, 139.51)
20 07/07/2013 14:39:02 ( 22.65, 165.07) 07/07/2013 14:42:37 ( 10.03, 162.07)
21 07/07/2013 16:20:32 ( 22.65, 139.70) 07/07/2013 16:20:45 ( 21.88, 139.51)
22 07/08/2013 03:29:37 ( 10.04, 147.21) 07/08/2013 03:33:12 ( 22.67, 144.20)
23
